C/2019 J2 ( Palomar )

Japanese version
Home page
Updated on May 19, 2019

---------------------------------------------------------------------

* Profile

Discovery Date May 9, 2019
Magnitude 16.8 mag
Discoverer Quan-zhi Ye (Palomar)

* Orbital Elements

Epoch 2019 July 16.0 TT = JDT 2458680.5
T 2019 July 20.00074 TT                                 MPCW
q   1.7209446            (2000.0)            P               Q
z  +0.0111416      Peri.   99.00069     -0.02878542     -0.90847516
 +/-0.0079498      Node    25.60538     -0.65606037     -0.29753398
e   0.9808259      Incl.  105.25308     +0.75415926     -0.29350710
From 59 observations 2019 Apr. 27-May 14, mean residual 0".6.

* Finding Charts

* Magnitudes Graph

        m1 = 12.5 + 5 log d + 10.0 log r

---------------------------------------------------------------------

The orbital elements are published on M.P.E.C. 2019-J142.
The charts are made with StellaNavigator Ver.10 (AstroArts).
The magnitudes graphs are made with Comet for Windows.

---------------------------------------------------------------------

Copyright(C) Seiichi Yoshida (comet@aerith.net). All rights reserved.